Location: Prairie Dale
(45.6972°N, 104.5033°W)
Time: 11:04:25
(UTC+00:00)

EO-79 - Visible Passes

Search period start: 30 June 2022 00:00
Search period end: 10 July 2022 00:00
Orbit: 587 x 605 km, 98.0° (Epoch: 29 June)

Date Brightness Start Highest point End Pass type
(mag) Time Alt. Az. Time Alt. Az. Time Alt. Az.
30 Jun ? 08:52:27 10° NNE 08:56:42 82° WNW 08:58:43 30° SSW visible
01 Jul ? 07:28:38 10° ENE 07:30:33 13° E 07:32:03 11° ESE visible
01 Jul ? 09:02:24 10° N 09:06:36 64° WNW 09:08:43 28° SSW visible
02 Jul ? 07:37:55 10° NE 07:40:34 16° E 07:42:03 14° ESE visible
02 Jul ? 09:12:23 10° N 09:16:29 50° WNW 09:18:43 24° SW visible
03 Jul ? 07:47:24 10° NE 07:50:35 20° E 07:52:03 17° ESE visible
03 Jul ? 09:22:23 10° N 09:26:21 40° WNW 09:28:43 21° SW visible
04 Jul ? 07:57:02 10° NE 08:00:34 25° E 08:02:03 21° SE visible
04 Jul ? 09:32:26 10° N 09:36:12 32° WNW 09:38:43 18° WSW visible
05 Jul ? 08:06:43 10° NNE 08:10:32 32° E 08:12:03 25° SE visible
05 Jul ? 09:42:31 10° N 09:46:02 26° WNW 09:48:42 14° WSW visible
06 Jul ? 08:16:29 10° NNE 08:20:29 40° E 08:22:02 29° SE visible
06 Jul ? 09:52:39 10° NNW 09:55:52 21° WNW 09:58:42 12° WSW visible
07 Jul ? 08:26:16 10° NNE 08:30:25 51° E 08:32:01 33° SSE visible
07 Jul ? 10:02:52 10° NNW 10:05:39 17° WNW 10:08:28 10° WSW visible
08 Jul ? 08:36:06 10° NNE 08:40:20 66° ESE 08:41:59 35° S visible
08 Jul ? 10:13:12 10° NNW 10:15:27 14° WNW 10:17:43 10° W visible
09 Jul ? 08:45:58 10° NNE 08:50:15 84° ESE 08:51:58 36° S visible
09 Jul ? 10:23:46 10° NW 10:25:13 12° WNW 10:26:40 10° W visible
